Location: Cheyres
(46.8153°N, 6.7877°E)
Time: 12:43:29
(UTC+00:00)

Gbstr 26 Del rocket - Pass Details

Date: 26 September 2021
Orbit: 492 x 1263 km, 51.8° (Epoch: 25 October)

Event Time Altitude Azimuth Distance (km) Brightness Sun altitude
Exits shadow 02:51:01 48° 204° (SSW) 1,462 4.5 -26.1°
Drops below altitude 10° 02:56:56 10° 150° (SSE) 2,835 6.4 -25.3°
Sets 02:59:28 0° 145° (SE) 3,677 7.1 -24.9°
